STARLINK-35908, 66639

Orbit data source: Space-Track

STARLINK-35908, 66639 is a payload satellite owned by SpaceX/Seattle (US) in LEO that was launched on Sun, 23 Nov 2025 UTC via an FALCON 9 launch vehicle from the Air Force Western Test Range (AFWTR). Payload-class satellites include a variety of spacecraft equipped with specific instruments for various scientific and technological missions. These include communications satellites like Starlink; space stations such as the ISS; scientific satellites like the Hubble; Earth observation satellites from companies like Planet Labs, Umbra, and HawkEye 360; GPS; miniature CubeSats for education and research; and military/defense satellites.

Loading next visibility...
Identifier
66639, 2025-271Y
Orbit
LEO
Country
Flag of USUS
Related business
Manufacturer
SpaceX/Seattle
Mission
Operational Commercial Communications
Bus & Motor
STARLINK V2MO, Unknown motor
Mass
575 kg wet, ~530 kg dry
Launch date (UTC)
2025-11-23 (10 months ago)
Launch vehicle
FALCON 9
Launch site
Air Force Western Test Range (AFWTR)
Object type
Payload
Rocket body
Debris
Shape & HBR
Box + 1 Pan, 17.7 m
Radar Cross Section
41.120 m², Large (>1 m²)

Expand to show TLE details & history
Last TLE update: 14 hours ago

TLE from 14 hours ago
0 STARLINK-35908
1 66639U 25271Y   26265.40841073  .00015665  00000-0  47352-3 0  9992
2 66639  53.1550 304.8841 0002527  87.6446 272.4846 15.34416300 47708
Epoch: 2026-09-22T09:48Z
TLE epoch observation values (Epoch: 2026-09-22T09:48:06.687Z)
Latitude
0.00001°
Longitude
156.58193°
Altitude
463.481 km
Speed
7.636 km/s
True Right ascension
20h 19m 32s
True Declination
0° 00' 00"
Sunlit
Object was in full shadow at epoch
Visualization orbit readout
Latitude
Unknown
Longitude
Unknown
Altitude
Unknown
Speed
Unknown
Apparent Right ascension
Unknown
Apparent Declination
Unknown
Sunlit
N/A
Visualization observer readout
Local Sidereal Time
16:26:21
Azimuth
Unknown
Elevation
Unknown
Doppler factor
Unknown
Orbital elements
Apogee altitude
464.641 km
Perigee altitude
461.184 km
Semi-major axis
6,841.049 km
Eccentricity
0.00025
Inclination
53.155°
RAAN
304.8841°
Arg. of periapsis
87.6446°
True anomaly
272.45567°
Mean anomaly
272.4846°
Eccentric anomaly
272.47013°
Mean motion
3.83583 °/min
Orbital period
93.85 mins
BSTAR
0.00047352
Loading maneuver chart data...
Computing Atmospheric mass density...
Loading historical data...
Loading historical data...
Loading historical data...
Loading historical data...
Loading historical data...
Loading historical data...
Loading historical data...

Documentation

Showing up to 5 results
|